sat.trackr.live / text

‹ back to catalog

STARLINK-31892

NORAD 59853 · 2024-097U

PAYLOAD ACTIVE UNKNOWN

§ Identity

Operator
Country
US
Launch date
2024-05-23
Launch site
AFETR
Launch vehicle
Mass (kg)
RCS (m²)

Purposes: comms

External: N2YO · Heavens-Above · Gunter

§ Orbital elements

Epoch: 2026-05-25T04:30:28.416096Z

Period
94.27 min
Inclination
43.0016°
Eccentricity
0.0001570
Mean motion
15.27567894 rev/d
Perigee alt
482.0 km
Apogee alt
484.2 km
Semi-major
6,861.2 km
B*
-3.8163e-6
RAAN
202.5568°
Arg perigee
281.2247°
Mean anomaly
78.8428°
Rev number
11,361

§ Raw data

STARLINK-318921 59853U 24097U   26145.18782889 -.00000367  00000+0 -38163-5 0  99942 59853  43.0016 202.5568 0001570 281.2247  78.8428 15.27567894113616

JSON: /api/v1/satellites/59853 · /tle

For live sub-satellite position, see the globe view (requires WebGL).

§ Visibility from observer

Set your observer location to see the next 7 days of passes ≥ 10°. The values pass through the URL so the page stays shareable.

No JS? Fill the form by hand. The geolocation button needs JavaScript.